Tracking 20241 objects as of 25-Jan-2020
HD Live streaming from Space Station
objects crossing your sky now

COSMOS 2251 DEB

Track COSMOS 2251 DEB now!
10-day predictions


NORAD ID: 35660
Int'l Code: 1993-036APB
Perigee: 741.7 km
Apogee: 768.6 km
Inclination: 74.0 °
Period: 99.8 minutes
Semi major axis: 7126 km
RCS: 0.0108 m2 (small)
Launch date: June 16, 1993
Source: Commonwealth of Independent States (former USSR) (CIS)
Launch site: PLESETSK MISSILE AND SPACE COMPLEX (PKMTR)

Note: This is SATELLITE DEBRIS
aabbcc
Your satellite tracking list
Your tracking list is empty




NASA's NSSDC Master Catalog

Two Line Element Set (TLE):
1 35660U 93036APB 20025.11720337  .00000127  00000-0  45708-4 0  9992
2 35660  74.0421 175.3753 0018856 137.4752 340.3864 14.43180329556030
Source of the keplerian elements: AFSPC